Temperature
16 17 17 17 14 13 15 16 17 17 17 18 18 17 16 15 16 16 15 15 16 16 16 16 16 16 16 16 16 16 16 16 16 15 15 15 15 15 15 15 15 15 15 15 15 15 15 15 15
16 17 17 16 13 13 14 15 16 17 17 18 17 16 15 14 15 15 15 15 15 16 16 16 16 16 16 16 16 16 16 16 15 15 15 15 15 15 15 15 15 15 15 15 15 15 15 15 15
16 16 17 12 13 14 15 16 16 16 17 17 16 15 14 14 14 15 15 15 15 15 15 15 15 16 16 16 16 16 16 15 15 15 15 15 15 15 15 15 15 15 15 15 15 15 15 14 14
16 16 15 12 14 14 15 16 15 16 17 17 15 14 14 14 14 15 15 15 15 15 15 15 15 15 16 16 16 16 16 15 15 15 15 15 15 15 15 15 15 15 15 15 15 14 14 14 14
16 15 13 12 14 14 14 15 16 15 15 16 15 13 13 14 14 14 14 15 15 15 15 15 15 15 15 15 16 16 15 15 15 15 15 15 15 15 15 15 15 15 15 14 14 14 14 14 14
15 13 12 12 13 14 14 15 15 14 15 15 14 13 13 14 14 14 14 14 15 15 15 15 15 15 15 15 15 15 15 15 15 15 15 15 15 15 15 15 14 14 14 14 14 14 14 14 14
14 11 12 12 13 14 15 15 14 13 13 14 15 12 12 13 13 14 14 14 14 14 14 14 14 14 15 15 15 15 15 15 15 15 15 15 14 14 14 14 14 14 14 14 14 14 13 13 13
14 11 12 12 13 14 15 15 15 14 14 14 15 13 12 13 13 13 13 13 14 14 14 14 14 14 14 14 14 15 14 14 14 14 14 14 14 14 14 14 14 14 14 14 14 13 13 13 13
14 10 11 12 13 13 14 14 14 14 14 14 14 14 14 13 13 13 13 13 13 13 13 13 14 14 14 14 14 14 14 14 14 14 14 14 14 14 14 14 14 14 14 13 13 13 13 13 13
13 10 11 12 13 13 13 13 13 13 12 12 12 13 13 13 13 13 13 13 13 13 13 13 13 13 13 13 14 14 14 14 14 14 14 14 14 14 14 13 13 13 13 13 13 13 13 13 13
11 10 11 12 13 13 13 13 13 12 11 12 12 12 12 12 12 12 12 12 12 12 12 13 13 13 13 13 13 13 13 13 13 13 13 13 13 13 13 13 13 13 13 13 13 13 13 12 12
11 11 12 12 13 13 12 12 12 12 12 13 13 13 12 12 12 12 12 12 12 12 12 12 12 13 13 13 13 13 13 13 13 13 13 13 13 13 13 13 13 13 13 13 12 12 12 12 12
11 11 12 12 12 12 12 11 11 11 12 12 12 12 12 11 11 11 11 11 11 12 12 12 12 12 12 12 13 13 13 13 13 13 13 13 13 13 13 12 12 12 12 12 12 12 12 12 12
11 11 11 11 12 11 11 11 11 11 12 12 11 11 11 11 11 11 11 11 11 11 11 12 12 12 12 12 12 12 12 12 12 12 12 12 12 12 12 12 12 12 12 12 12 12 12 12 12
11 10 10 10 11 11 11 10 9 11 11 11 11 11 11 11 11 11 11 11 11 11 11 11 11 11 11 11 12 12 12 12 12 12 12 12 12 12 12 12 12 12 12 12 11 11 11 11 11
10 9 9 10 10 10 10 10 10 11 11 10 10 10 10 10 10 10 10 10 10 11 11 11 11 11 11 11 11 11 11 11 11 11 11 11 11 11 12 12 12 11 11 11 11 11 11 11 11
8 8 9 10 10 10 9 9 9 10 10 9 9 10 10 10 10 10 10 10 10 10 10 10 10 10 10 10 10 10 11 11 11 11 11 11 11 11 11 11 11 11 11 11 11 11 10 10 10
8 8 9 9 9 9 9 8 9 10 9 9 9 9 9 9 9 9 10 10 10 10 10 10 10 10 10 10 10 10 10 10 10 10 10 11 11 11 11 11 11 10 10 10 10 10 10 10 10
8 8 8 9 9 9 8 8 8 9 8 8 8 8 8 9 9 9 9 9 9 9 9 9 9 9 9 9 9 9 10 10 9 9 10 10 10 10 10 10 10 10 10 10 10 10 10 9 9
8 8 7 8 9 9 8 7 7 7 8 8 8 8 8 8 9 9 9 9 9 9 9 9 9 9 9 9 9 9 9 9 9 9 9 9 10 10 10 10 10 9 9 9 9 9 9 9 9
7 7 7 7 8 8 7 7 7 7 8 8 8 8 8 8 8 8 8 8 9 9 9 8 8 8 8 8 8 8 8 9 9 9 9 9 9 9 9 9 9 9 9 9 9 9 8 8 8
7 7 7 7 6 6 7 6 6 6 6 6 7 7 7 7 7 8 8 8 8 8 8 8 8 8 8 8 8 8 8 8 8 8 8 8 8 8 8 8 8 8 8 8 8 8 8 8 8
7 7 7 7 6 5 6 5 6 6 6 6 6 6 7 7 7 7 7 7 7 7 7 7 7 7 7 7 7 7 7 7 7 7 8 8 8 8 8 8 8 8 8 8 8 8 7 7 7
7 6 6 5 4 5 5 5 5 4 5 5 5 6 6 6 7 7 7 7 7 7 7 7 7 7 7 7 7 7 7 7 7 7 7 7 7 7 7 7 7 7 7 7 7 7 7 7 7
6 5 5 5 4 5 5 5 5 5 5 5 5 6 6 6 6 6 6 6 6 6 6 6 6 6 6 6 6 6 6 6 6 6 7 7 7 7 7 7 7 7 6 6 6 6 6 6 6
5 5 5 5 4 4 5 5 5 5 5 5 6 6 6 6 6 6 6 5 5 5 5 5 5 6 6 6 6 6 6 6 6 6 6 6 6 6 6 6 6 6 6 6 6 5 6 5 5
5 4 5 4 4 4 4 4 4 5 4 4 4 5 5 5 5 5 5 5 5 5 5 5 5 5 5 5 5 5 5 5 5 5 5 5 5 6 6 6 5 5 5 5 5 5 5 5 5
5 4 3 4 4 4 4 4 4 4 4 4 3 4 4 4 5 5 4 4 4 4 4 4 4 4 4 4 4 5 5 5 5 5 5 5 5 5 5 5 5 5 4 4 4 4 4 4 4
4 4 3 3 3 4 4 4 4 4 4 3 3 4 4 4 4 4 4 4 4 3 3 3 3 4 4 4 4 4 4 4 4 4 4 4 4 4 4 4 4 4 4 4 4 4 4 4 4
3 3 2 3 3 2 2 4 4 3 3 3 3 4 4 4 4 3 3 3 3 3 3 3 3 3 3 3 3 3 3 4 4 4 4 4 4 4 4 4 4 3 3 3 3 3 3 3 3
Wind_Speed
11 9 2 4 5 4 1 3 2 0 1 1 3 6 7 5 3 3 1 3 4 4 5 7 8 8 9 9 11 12 12 13 13 13 13 13 14 13 13 13 13 13 12 13 13 13 13 13 13
7 3 5 5 5 2 3 3 2 2 2 2 4 5 6 3 2 3 1 2 5 5 5 7 8 8 9 10 10 12 12 12 12 12 13 13 13 13 13 12 12 12 12 13 13 12 12 12 11
4 2 4 4 4 5 4 3 4 1 1 2 3 4 4 2 1 1 1 3 5 5 5 7 8 8 9 10 10 11 11 12 12 12 12 13 13 12 12 12 12 12 12 12 12 11 11 11 10
3 4 5 4 3 3 4 3 2 2 3 4 4 4 2 2 1 1 2 5 6 4 5 7 8 8 8 9 10 10 11 11 11 11 12 12 13 13 12 12 12 12 11 11 11 10 10 10 10
4 4 3 1 3 2 2 1 0 1 1 2 3 3 1 4 2 4 4 6 7 4 4 6 7 7 8 9 9 9 10 10 10 11 11 12 12 12 12 12 11 11 11 10 10 9 9 9 9
4 4 4 3 4 2 1 1 1 1 0 1 3 3 1 2 3 3 4 5 6 5 4 4 6 6 7 9 9 9 10 10 10 10 10 11 12 12 11 11 11 10 10 10 9 8 8 8 8
4 4 4 4 3 2 2 0 2 2 1 1 3 4 1 1 0 2 3 5 5 5 4 4 4 5 6 7 8 8 9 10 9 9 10 11 11 11 10 10 10 9 9 9 8 8 7 7 7
4 4 2 2 3 3 2 0 1 2 1 1 3 5 4 3 1 3 4 5 5 4 3 3 3 3 4 6 7 8 8 9 9 9 10 10 10 10 10 9 9 9 8 8 7 7 6 6 6
4 3 3 4 5 3 1 1 2 2 3 3 2 1 2 4 4 5 5 4 4 4 3 2 2 2 3 5 6 7 8 9 10 9 10 10 8 8 8 8 9 8 8 7 6 6 5 5 5
4 4 5 3 3 2 1 1 0 2 3 2 3 4 3 5 5 5 5 4 3 2 1 2 2 2 3 4 5 5 6 7 8 8 8 8 8 7 7 8 8 8 7 6 5 4 4 5 5
3 5 3 1 0 1 1 2 1 3 1 3 3 3 4 4 4 5 4 3 3 2 1 1 1 2 3 3 4 4 5 6 6 7 7 7 7 6 6 6 6 6 6 4 4 3 3 3 3
2 1 2 1 0 1 0 1 1 1 3 3 5 6 6 5 5 5 4 2 2 2 1 1 1 2 3 3 3 4 4 5 5 6 7 7 5 4 4 4 4 4 3 3 3 2 2 2 3
2 1 1 0 1 1 1 0 1 2 2 2 5 6 6 5 3 2 2 2 2 1 1 1 2 2 2 3 3 4 4 4 5 5 6 6 5 4 4 4 4 3 3 2 2 1 1 2 2
2 1 0 1 1 1 1 2 1 4 2 4 5 4 4 4 3 2 1 1 1 1 1 0 2 2 3 3 3 3 4 5 5 5 5 6 5 4 4 3 3 2 2 2 2 1 1 1 1
1 2 2 2 2 2 2 3 4 5 3 4 3 3 3 3 2 2 2 2 2 2 2 1 2 2 2 3 3 4 4 5 5 5 6 6 6 5 4 3 2 2 2 2 2 2 2 1 1
2 2 1 3 2 2 4 5 5 2 4 3 3 2 2 2 2 1 1 2 2 2 2 2 2 2 2 2 3 3 4 4 4 5 6 7 6 6 5 3 2 3 3 2 2 1 1 1 0
1 2 3 3 2 2 4 5 5 1 4 4 3 3 2 2 1 1 1 1 2 3 3 2 2 2 2 2 3 3 4 4 4 4 5 6 6 6 5 3 2 3 3 2 1 1 1 0 0
4 3 3 4 2 1 3 6 6 2 3 4 3 3 2 3 3 2 1 1 2 2 3 3 2 2 2 2 2 2 3 3 3 3 4 5 5 6 5 4 3 3 2 1 1 1 1 0 1
3 3 3 4 2 1 5 7 7 5 3 4 3 3 3 3 3 1 1 2 2 2 3 3 2 2 2 1 1 1 1 1 1 2 3 4 4 6 5 3 3 3 2 2 2 1 1 1 1
2 1 1 3 2 1 3 7 7 6 6 5 6 5 4 2 0 1 1 1 2 2 2 3 2 2 1 1 1 1 2 1 1 2 2 3 4 4 4 4 3 3 2 2 2 2 1 1 1
2 4 3 3 4 3 1 5 4 3 2 2 2 3 3 3 3 1 1 2 2 2 2 2 1 2 2 2 2 3 3 2 2 1 0 1 3 3 3 3 3 3 3 3 2 3 2 1 0
3 3 3 2 0 3 0 4 6 4 3 3 3 2 3 2 2 2 2 2 1 1 1 2 2 2 2 2 3 3 3 2 1 1 1 1 2 3 3 3 3 2 2 3 3 2 2 2 1
3 1 1 1 2 2 2 3 7 2 3 4 4 3 3 3 3 2 2 2 2 2 2 2 2 2 2 2 2 3 2 2 1 1 1 1 1 2 2 2 2 2 2 2 2 2 2 2 3
2 3 3 3 2 3 5 5 6 3 4 3 2 2 2 2 2 2 1 2 2 2 2 2 2 2 2 2 2 2 2 2 2 1 1 0 0 1 2 2 1 1 1 2 2 3 3 3 2
4 4 2 3 1 6 3 4 7 5 3 3 4 3 1 1 1 1 2 2 2 2 2 2 2 2 2 1 1 2 2 2 2 2 1 1 0 1 1 1 0 1 1 1 1 2 2 3 3
3 5 6 5 5 4 3 6 5 3 1 1 2 2 1 1 1 1 2 2 1 1 1 1 1 1 2 1 0 0 1 1 1 2 2 2 2 2 1 1 1 1 1 1 1 2 2 2 3
3 3 4 4 1 3 5 5 5 1 2 2 1 2 1 0 0 1 1 2 1 1 0 0 1 1 1 2 1 0 0 0 1 1 1 1 1 1 1 0 1 1 1 1 1 2 2 2 3
2 4 3 4 3 4 5 5 4 4 3 2 1 1 1 0 0 0 0 1 1 1 0 1 1 1 1 1 1 0 0 1 1 1 1 1 1 1 1 1 1 1 1 1 1 1 2 2 2
3 2 2 3 4 4 4 6 4 5 5 4 4 3 3 2 1 1 0 0 0 0 1 1 1 1 1 2 2 1 1 1 0 1 2 2 2 2 2 2 2 2 2 2 2 2 2 2 2
4 5 5 4 4 4 3 7 3 2 2 3 3 3 2 2 1 1 0 0 1 1 1 1 1 1 1 2 2 2 2 1 1 2 2 2 2 2 2 2 3 3 3 3 3 4 3 3 3
Wind_Direction
331 334 42 54 58 56 234 263 249 23 42 357 67 94 104 104 123 144 142 120 112 131 148 144 137 132 130 127 126 124 123 120 118 118 117 115 113 111 109 109 106 105 104 103 102 101 99 98 97
335 355 53 62 96 125 264 260 224 240 197 134 63 72 75 71 60 94 77 125 124 129 134 139 136 134 131 128 129 129 128 126 123 123 122 119 117 116 114 112 109 108 106 105 103 101 100 98 97
336 51 79 82 128 180 212 248 202 216 29 67 61 55 95 114 92 144 219 143 118 119 131 135 134 135 133 131 127 132 131 129 127 127 126 125 121 120 120 118 116 114 111 109 107 105 102 100 98
49 51 59 88 187 220 203 242 215 113 32 40 88 63 67 26 202 195 137 118 113 104 121 136 132 137 134 133 130 132 133 133 132 131 131 127 124 122 120 117 117 117 115 114 112 109 104 101 100
63 81 83 133 229 244 248 271 2 88 58 25 76 97 56 342 33 96 104 109 113 102 96 129 130 136 138 139 135 136 137 135 136 135 135 130 127 124 121 118 116 116 119 119 118 113 107 105 105
66 80 118 202 230 253 272 284 167 63 345 11 86 113 168 340 69 85 96 110 116 114 100 113 131 130 138 141 140 140 142 139 139 136 137 134 130 127 125 123 118 118 119 120 119 115 108 106 109
115 117 166 187 212 253 254 232 140 154 100 288 134 125 187 294 26 85 91 100 99 99 98 91 112 130 140 140 140 140 145 143 140 137 138 134 131 130 129 126 123 121 121 121 116 113 108 105 109
130 121 162 195 197 234 266 159 136 138 170 338 106 143 197 224 177 95 87 86 86 80 75 80 93 120 133 143 142 141 139 141 138 132 133 135 134 134 132 128 125 123 121 122 120 115 104 98 104
103 102 191 202 190 217 294 70 19 48 87 35 42 147 194 148 121 98 84 69 75 78 60 57 71 107 120 137 146 141 139 140 133 129 131 131 128 129 133 130 126 123 121 122 119 113 103 90 96
103 164 208 218 186 176 17 58 149 63 46 31 22 22 75 112 121 121 118 117 106 99 71 55 64 84 109 124 132 129 127 130 126 122 124 122 121 122 128 130 128 126 123 122 116 107 98 84 85
141 179 197 274 221 136 41 351 352 127 218 217 191 171 128 120 125 131 134 142 153 155 130 80 80 83 96 96 111 110 109 112 115 119 121 122 117 116 116 116 119 118 117 109 105 92 84 77 82
146 198 188 232 311 83 76 7 7 218 230 206 175 157 148 143 148 154 154 158 139 126 131 114 86 90 89 97 106 113 109 109 110 118 120 120 117 113 114 109 109 106 106 98 95 85 67 71 90
180 209 224 225 72 102 88 65 221 263 251 121 123 129 145 156 155 161 157 138 119 119 96 138 100 104 104 98 105 110 112 115 116 116 118 119 120 127 120 117 115 107 110 111 102 80 79 78 80
175 166 259 270 246 245 163 283 256 250 207 128 133 147 161 163 168 158 136 138 143 148 143 76 100 115 114 114 116 109 122 124 120 117 121 122 123 127 129 128 123 117 125 131 131 131 119 123 107
93 56 338 283 218 215 127 317 249 232 148 141 152 161 165 179 165 171 183 175 168 165 154 126 128 94 101 113 119 116 120 129 127 128 126 126 126 129 130 134 133 137 138 123 104 94 88 85 81
71 74 278 280 186 179 145 252 262 223 150 177 190 181 184 199 182 177 171 150 137 132 129 119 115 91 86 96 105 113 118 125 131 131 130 132 133 132 130 138 144 142 131 120 120 111 87 78 69
64 182 221 273 227 159 173 241 268 229 165 199 208 198 200 203 198 211 197 147 125 120 121 108 101 109 107 105 106 103 105 107 125 129 132 140 140 140 134 137 138 133 122 117 137 102 110 98 340
207 203 218 235 268 156 212 249 270 260 186 217 217 206 202 206 226 219 199 145 116 113 108 100 86 85 96 97 83 81 82 85 100 118 128 139 139 138 132 127 121 123 126 126 120 107 66 116 224
175 177 230 253 262 209 232 253 260 255 240 232 231 221 213 224 231 204 175 139 106 96 92 93 90 76 89 88 112 123 135 135 124 97 109 119 132 138 130 124 120 128 151 152 136 116 91 37 35
169 179 261 300 323 242 250 269 265 248 235 217 209 215 216 222 253 88 116 121 126 124 103 92 87 91 104 92 128 143 151 128 112 90 86 125 118 132 140 133 145 147 148 138 133 110 106 59 65
214 194 208 249 330 342 308 296 265 266 240 226 226 215 206 196 191 172 119 96 82 85 105 118 103 95 81 70 82 85 73 63 56 51 82 77 124 127 122 125 132 148 154 163 172 160 146 161 273
227 222 205 214 75 284 171 277 270 247 256 244 246 244 231 216 203 183 153 124 115 98 72 101 109 94 78 86 102 114 127 137 193 194 168 59 79 94 105 121 125 150 165 174 186 174 178 163 187
208 224 199 218 186 291 251 226 280 256 244 255 246 238 227 215 202 171 150 145 124 102 94 73 71 69 67 89 102 118 128 141 119 84 86 70 39 60 72 89 108 156 181 187 191 185 183 186 186
152 56 34 42 86 260 227 198 273 237 228 244 248 240 238 225 196 161 125 102 86 72 73 78 71 47 54 87 101 110 134 139 119 96 114 80 350 3 32 60 67 191 199 196 210 206 196 204 198
92 99 40 352 319 248 232 206 251 255 235 211 210 227 245 186 150 138 110 93 81 70 61 69 91 51 38 78 105 140 152 165 176 182 185 183 240 293 296 3 338 255 245 219 202 204 218 218 209
176 152 167 200 225 274 291 235 254 280 303 151 175 185 127 108 132 156 160 146 130 85 53 53 67 57 38 37 16 126 163 178 202 207 205 211 222 237 280 328 316 302 282 258 221 221 234 230 226
155 186 178 147 198 266 266 281 301 265 10 38 79 107 109 101 121 131 151 145 147 143 143 136 103 52 37 26 14 80 33 208 212 208 215 228 244 248 290 318 340 331 311 277 235 233 251 247 236
159 152 120 149 181 247 275 264 248 245 237 240 246 262 254 242 122 75 118 161 162 159 13 59 90 89 356 -0 354 35 290 245 245 221 214 224 238 246 237 245 269 294 302 287 243 243 255 254 261
157 158 161 165 181 187 250 263 229 214 215 219 231 245 244 225 211 226 277 169 125 55 35 38 49 43 5 352 351 337 304 304 292 260 249 240 241 231 223 230 235 242 250 256 245 244 243 243 258
196 192 169 180 227 204 216 265 286 208 212 203 234 254 240 224 214 201 220 90 81 26 356 339 337 344 327 333 336 320 297 303 288 273 267 255 249 246 239 236 238 245 249 242 235 239 236 237 247
Height
1503 1504 1505 1506 1510 1521 1521 1514 1507 1506 1505 1504 1503 1504 1506 1511 1515 1520 1516 1515 1516 1517 1519 1520 1521 1522 1522 1523 1524 1524 1526 1527 1528 1528 1529 1530 1531 1531 1532 1532 1533 1533 1534 1534 1534 1535 1535 1535 1536
1503 1504 1506 1507 1517 1528 1523 1512 1508 1505 1504 1504 1504 1505 1507 1511 1512 1513 1513 1514 1516 1517 1518 1520 1521 1522 1522 1523 1523 1524 1525 1526 1528 1529 1529 1530 1531 1532 1532 1532 1533 1534 1534 1535 1535 1535 1536 1536 1536
1503 1504 1506 1509 1519 1523 1517 1508 1506 1504 1504 1504 1505 1507 1509 1512 1512 1512 1513 1514 1515 1516 1517 1519 1520 1521 1522 1522 1523 1524 1525 1526 1528 1529 1530 1530 1531 1532 1532 1533 1533 1534 1535 1535 1535 1536 1536 1537 1537
1503 1505 1507 1514 1516 1513 1509 1506 1504 1503 1503 1504 1505 1508 1510 1513 1513 1513 1513 1514 1514 1516 1517 1518 1519 1520 1521 1522 1523 1524 1525 1526 1527 1528 1529 1530 1531 1532 1533 1533 1534 1534 1535 1535 1536 1536 1537 1537 1537
1503 1504 1511 1518 1514 1510 1507 1505 1504 1504 1504 1505 1506 1509 1511 1513 1512 1512 1512 1513 1514 1515 1516 1517 1518 1519 1520 1521 1522 1523 1524 1526 1527 1528 1529 1530 1531 1532 1532 1533 1534 1534 1535 1535 1536 1536 1537 1537 1538
1503 1505 1517 1519 1513 1508 1506 1505 1504 1505 1505 1506 1507 1509 1511 1512 1512 1512 1512 1513 1514 1514 1515 1516 1518 1518 1519 1520 1521 1523 1524 1525 1526 1527 1528 1530 1531 1532 1532 1533 1534 1534 1535 1536 1536 1536 1537 1537 1538
1503 1508 1514 1514 1512 1509 1506 1504 1505 1505 1505 1506 1506 1509 1510 1511 1511 1511 1512 1512 1513 1514 1515 1516 1516 1517 1519 1519 1520 1522 1523 1524 1525 1527 1528 1529 1530 1531 1532 1533 1533 1534 1535 1535 1536 1536 1536 1537 1537
1502 1507 1511 1512 1510 1508 1505 1504 1504 1505 1505 1506 1506 1507 1508 1509 1510 1511 1511 1512 1512 1513 1514 1514 1515 1516 1517 1518 1520 1521 1522 1523 1525 1526 1527 1528 1529 1530 1531 1532 1533 1534 1534 1535 1535 1536 1536 1536 1537
1501 1510 1513 1509 1508 1506 1503 1504 1504 1505 1505 1505 1506 1507 1507 1508 1509 1509 1510 1510 1511 1512 1512 1513 1514 1515 1516 1517 1518 1520 1521 1522 1524 1525 1526 1527 1528 1529 1530 1531 1532 1533 1534 1534 1535 1535 1535 1536 1536
1501 1510 1507 1504 1503 1503 1503 1503 1504 1505 1505 1505 1506 1506 1506 1507 1507 1507 1507 1508 1509 1509 1511 1511 1512 1513 1514 1515 1517 1518 1519 1521 1522 1523 1524 1525 1527 1528 1529 1530 1531 1532 1533 1533 1534 1534 1535 1535 1535
1500 1505 1503 1503 1502 1502 1503 1504 1504 1504 1505 1505 1505 1505 1505 1506 1506 1506 1506 1507 1508 1508 1509 1510 1511 1511 1512 1514 1515 1516 1518 1519 1520 1522 1523 1524 1525 1527 1528 1529 1530 1531 1531 1532 1532 1533 1533 1534 1534
1501 1502 1502 1502 1502 1502 1503 1503 1504 1503 1504 1503 1503 1504 1504 1505 1505 1505 1506 1506 1506 1507 1507 1508 1509 1509 1511 1512 1513 1514 1516 1517 1518 1520 1521 1522 1524 1525 1526 1527 1528 1529 1530 1530 1531 1531 1532 1532 1533
1501 1502 1501 1501 1501 1502 1502 1503 1503 1503 1503 1503 1503 1503 1503 1504 1504 1505 1505 1505 1505 1505 1505 1506 1507 1508 1509 1510 1511 1513 1514 1515 1516 1518 1519 1520 1522 1523 1524 1525 1527 1527 1528 1529 1529 1530 1530 1530 1531
1500 1501 1501 1501 1501 1502 1502 1502 1502 1501 1502 1502 1502 1502 1503 1503 1503 1504 1503 1503 1504 1504 1504 1505 1506 1506 1507 1508 1510 1511 1512 1513 1515 1516 1517 1518 1520 1521 1522 1524 1525 1525 1526 1527 1527 1528 1528 1528 1529
1500 1502 1502 1501 1501 1501 1502 1503 1500 1499 1500 1500 1500 1501 1501 1501 1502 1502 1502 1502 1502 1503 1503 1503 1504 1504 1505 1506 1507 1508 1510 1511 1512 1513 1515 1517 1518 1519 1521 1522 1522 1523 1524 1525 1525 1526 1526 1526 1527
1501 1505 1507 1502 1500 1500 1505 1505 1499 1498 1498 1498 1499 1499 1500 1500 1500 1501 1501 1501 1501 1501 1501 1502 1502 1502 1503 1504 1505 1506 1507 1508 1510 1511 1513 1515 1516 1517 1519 1519 1520 1521 1522 1522 1523 1523 1523 1524 1524
1506 1509 1507 1504 1500 1500 1503 1503 1498 1498 1497 1497 1498 1498 1498 1498 1499 1499 1499 1499 1499 1499 1499 1500 1500 1501 1501 1502 1503 1504 1505 1506 1507 1509 1511 1512 1513 1515 1516 1517 1518 1519 1519 1520 1520 1520 1521 1521 1521
1507 1507 1505 1505 1500 1501 1502 1500 1497 1497 1496 1496 1496 1496 1497 1496 1497 1497 1497 1497 1497 1498 1498 1498 1499 1500 1500 1500 1500 1502 1503 1504 1505 1506 1508 1510 1511 1512 1514 1515 1516 1516 1517 1517 1518 1518 1519 1519 1519
1502 1504 1505 1503 1500 1501 1500 1499 1497 1495 1495 1495 1495 1495 1495 1495 1496 1496 1496 1496 1496 1496 1496 1496 1497 1497 1498 1498 1498 1499 1500 1501 1503 1504 1505 1507 1508 1510 1511 1512 1513 1514 1514 1515 1515 1515 1516 1516 1516
1501 1505 1506 1504 1500 1501 1501 1499 1496 1494 1493 1493 1493 1493 1492 1493 1493 1493 1493 1493 1494 1494 1494 1495 1495 1495 1496 1496 1497 1498 1498 1499 1501 1502 1503 1505 1506 1507 1508 1509 1510 1511 1512 1512 1512 1512 1512 1513 1514
1503 1506 1506 1505 1502 1500 1502 1500 1496 1492 1491 1491 1491 1491 1491 1490 1490 1491 1491 1491 1491 1492 1492 1493 1494 1494 1494 1495 1495 1496 1497 1497 1499 1500 1501 1502 1503 1504 1505 1506 1507 1507 1508 1509 1509 1509 1509 1510 1511
1503 1501 1502 1503 1507 1510 1506 1509 1496 1493 1492 1490 1490 1489 1489 1489 1489 1489 1489 1489 1490 1490 1492 1493 1493 1493 1493 1494 1494 1494 1495 1495 1496 1497 1498 1499 1500 1501 1502 1503 1503 1504 1505 1506 1506 1506 1507 1507 1507
1501 1499 1501 1503 1507 1510 1508 1510 1499 1493 1492 1490 1488 1488 1487 1487 1488 1488 1488 1488 1489 1490 1491 1491 1492 1492 1492 1493 1493 1493 1493 1494 1495 1496 1496 1496 1498 1498 1499 1500 1500 1501 1502 1502 1503 1503 1504 1504 1504
1499 1501 1503 1507 1511 1513 1506 1509 1499 1496 1490 1488 1487 1486 1485 1486 1486 1486 1487 1488 1488 1489 1489 1490 1490 1491 1491 1491 1491 1491 1492 1492 1492 1493 1493 1494 1495 1495 1496 1497 1498 1498 1499 1499 1500 1500 1500 1501 1501
1500 1507 1515 1515 1518 1511 1503 1503 1497 1489 1486 1486 1485 1485 1485 1485 1485 1485 1485 1485 1486 1487 1487 1488 1489 1489 1489 1489 1489 1489 1490 1490 1490 1491 1491 1492 1492 1492 1493 1494 1494 1495 1495 1496 1496 1496 1497 1497 1497
1501 1505 1513 1516 1516 1511 1503 1501 1494 1487 1485 1483 1484 1484 1484 1484 1484 1484 1484 1484 1485 1485 1486 1486 1486 1487 1487 1487 1487 1488 1488 1488 1488 1488 1489 1489 1489 1490 1490 1491 1491 1492 1492 1493 1493 1493 1493 1494 1494
1501 1504 1504 1511 1514 1514 1506 1499 1491 1486 1485 1484 1483 1483 1483 1483 1483 1484 1484 1484 1484 1484 1484 1485 1485 1485 1485 1485 1485 1485 1485 1485 1485 1486 1486 1487 1487 1487 1488 1488 1488 1488 1489 1489 1489 1489 1490 1490 1490
1499 1501 1507 1510 1512 1509 1503 1500 1494 1487 1485 1484 1484 1482 1482 1482 1482 1483 1483 1483 1483 1483 1483 1483 1483 1483 1483 1483 1483 1483 1483 1483 1483 1483 1483 1483 1484 1484 1484 1484 1484 1485 1485 1485 1485 1486 1486 1486 1486
1501 1503 1505 1508 1509 1509 1505 1496 1484 1483 1482 1483 1483 1482 1482 1481 1481 1481 1481 1482 1482 1482 1482 1482 1481 1481 1481 1481 1481 1481 1481 1481 1481 1481 1480 1480 1480 1480 1480 1480 1481 1481 1481 1481 1482 1482 1482 1482 1482
1498 1499 1503 1506 1507 1509 1508 1497 1481 1481 1480 1481 1481 1482 1481 1481 1480 1480 1480 1480 1480 1480 1480 1480 1479 1479 1478 1478 1478 1477 1478 1478 1478 1477 1477 1477 1477 1477 1477 1477 1477 1477 1477 1478 1478 1478 1478 1478 1477